KD4TJG Weather Reports


Display with metric or nautical units.
time (UTC)temp
F
wind
direction
speed
MPH
gust
MPH
rain 1hr
in
rain 24hr
in
rain mn
in
humidity
%
barometer
mb
20260509203641 75 137 7.0 14.0 0.00 0.00 0.00 62 1011.2
20260509203521 74 157 7.0 14.0 0.00 0.00 0.00 61 1009.3
20260509203042 74 139 7.0 15.0 0.00 0.00 0.00 61 1009.4
20260509202640 74 147 6.0 14.0 0.00 0.00 0.00 61 1011.5
20260509202524 74 187 4.0 15.0 0.00 0.00 0.00 61 1009.4
20260509202022 74 178 8.0 15.0 0.00 0.00 0.00 63 1009.4
20260509201653 74 157 6.0 12.0 0.00 0.00 0.00 60 1011.5
20260509201542 74 170 6.0 13.0 0.00 0.00 0.00 61 1009.6
20260509201025 75 189 6.0 13.0 0.00 0.00 0.00 62 1009.4
20260509200522 74 176 6.0 14.0 0.00 0.00 0.00 62 1009.5
20260509200040 73 160 4.0 14.0 0.00 0.00 0.00 62 1009.5
20260509195525 76 118 4.0 12.0 0.00 0.00 0.00 60 1011.6
20260509195521 75 118 6.0 12.0 0.00 0.00 0.00 60 1009.5
20260509195022 75 150 5.0 13.0 0.00 0.00 0.00 63 1009.5
20260509194540 74 149 6.0 13.0 0.00 0.00 0.00 62 1009.5
20260509194022 74 154 7.0 13.0 0.00 0.00 0.00 62 1009.6
20260509193525 74 185 4.0 10.0 0.00 0.00 0.00 63 1009.9
20260509193418 74 202 3.0 15.0 0.00 0.00 0.00 62 1011.7
20260509193043 73 226 2.0 10.0 0.00 0.00 0.00 65 1009.8
20260509192523 73 110 4.0 18.0 0.00 0.00 0.00 65 1010.0
20260509192406 73 148 5.0 15.0 0.00 0.00 0.00 65 1012.0
20260509192022 72 195 6.0 18.0 0.00 0.00 0.00 65 1010.0
20260509191540 72 210 6.0 18.0 0.00 0.00 0.00 66 1010.0
20260509191419 72 176 4.0 11.0 0.00 0.00 0.00 66 1012.0
20260509191025 71 193 3.0 11.0 0.00 0.00 0.00 67 1010.1
20260509190522 71 162 6.0 12.0 0.00 0.00 0.00 67 1010.1
20260509190044 72 185 4.0 12.0 0.00 0.00 0.00 65 1010.0
20260509185523 72 181 3.0 10.0 0.00 0.00 0.00 66 1010.0
20260509185306 72 150 3.0 11.0 0.00 0.00 0.00 67 1012.0
20260509185023 72 273 3.0 14.0 0.00 0.00 0.00 67 1010.0
20260509184551 71 219 4.0 14.0 0.00 0.00 0.00 67 1010.1
20260509184239 71 189 4.0 11.0 0.00 0.00 0.00 67 1012.0
20260509184022 71 189 5.0 11.0 0.00 0.00 0.00 67 1010.1
20260509183523 71 170 2.0 12.0 0.00 0.00 0.00 67 1010.1
20260509183224 71 164 5.0 11.0 0.00 0.00 0.00 66 1012.2
20260509183042 71 184 5.0 12.0 0.00 0.00 0.00 66 1010.3
20260509182525 71 187 4.0 12.0 0.00 0.00 0.00 67 1010.3
20260509182227 71 172 4.0 10.0 0.00 0.00 0.00 66 1012.3
20260509182023 71 200 6.0 12.0 0.00 0.00 0.00 65 1010.2
20260509181555 71 180 4.0 8.0 0.00 0.00 0.00 64 1010.2
20260509181244 72 182 4.0 6.0 0.00 0.00 0.00 63 1012.4
20260509181023 72 204 5.0 8.0 0.00 0.00 0.00 63 1010.4
20260509180523 71 228 3.0 11.0 0.00 0.00 0.00 64 1010.4
20260509180046 71 230 5.0 13.0 0.00 0.00 0.00 65 1010.5
20260509175525 71 203 7.0 13.0 0.00 0.00 0.00 63 1010.7
20260509175122 72 157 4.0 13.0 0.00 0.00 0.00 62 1012.6
20260509175022 72 203 5.0 14.0 0.00 0.00 0.00 61 1010.7
20260509174537 73 184 5.0 14.0 0.00 0.00 0.00 60 1010.6
20260509174138 74 255 5.0 13.0 0.00 0.00 0.00 61 1012.6
20260509174022 74 220 7.0 15.0 0.00 0.00 0.00 60 1010.5
20260509173521 74 282 7.0 15.0 0.00 0.00 0.00 61 1010.6
20260509173135 75 192 3.0 10.0 0.00 0.00 0.00 64 1012.6
20260509173046 74 135 3.0 10.0 0.00 0.00 0.00 63 1010.6
20260509172522 73 193 3.0 11.0 0.00 0.00 0.00 64 1010.7
20260509172113 72 183 4.0 9.0 0.00 0.00 0.00 66 1012.7
20260509172022 72 197 4.0 11.0 0.00 0.00 0.00 67 1010.7
20260509171541 71 183 6.0 11.0 0.00 0.00 0.00 67 1010.8
20260509171053 71 163 5.0 13.0 0.00 0.00 0.00 69 1012.8
20260509171020 71 197 6.0 12.0 0.00 0.00 0.00 68 1010.9
20260509170522 70 185 5.0 14.0 0.00 0.00 0.00 69 1010.9
20260509170048 71 164 6.0 14.0 0.00 0.00 0.00 66 1010.9
20260509165522 71 206 4.0 11.0 0.00 0.00 0.00 68 1011.0
20260509165022 72 206 5.0 11.0 0.00 0.00 0.00 69 1011.2
20260509164543 71 183 4.0 10.0 0.00 0.00 0.00 71 1011.2
20260509164025 69 199 3.0 10.0 0.00 0.00 0.00 73 1011.4
20260509163522 68 212 3.0 9.0 0.00 0.00 0.00 71 1011.4
20260509163039 69 223 3.0 10.0 0.00 0.00 0.00 71 1011.6
20260509162806 69 217 4.0 7.0 0.00 0.00 0.00 72 1013.6
20260509162522 69 80 4.0 14.0 0.00 0.00 0.00 73 1011.6
20260509162025 68 191 5.0 14.0 0.00 0.00 0.00 73 1011.6
20260509161541 68 187 6.0 10.0 0.00 0.00 0.00 74 1011.7
20260509161022 67 131 5.0 11.0 0.00 0.00 0.00 73 1011.8
20260509160705 69 175 6.0 13.0 0.00 0.00 0.00 72 1014.1
20260509160522 68 191 5.0 14.0 0.00 0.00 0.00 72 1012.0
20260509160041 68 157 8.0 14.0 0.00 0.00 0.00 73 1012.0
20260509155637 69 156 4.0 13.0 0.00 0.00 0.00 74 1013.9
20260509155521 68 170 5.0 11.0 0.00 0.00 0.00 74 1011.9
20260509155022 68 197 4.0 13.0 0.00 0.00 0.00 75 1011.9
20260509154545 68 139 6.0 14.0 0.00 0.00 0.00 75 1011.9
20260509154025 68 164 7.0 14.0 0.00 0.00 0.00 74 1011.8
20260509153523 68 170 5.0 12.0 0.00 0.00 0.00 75 1011.6
20260509153506 68 201 5.0 11.0 0.00 0.00 0.00 75 1013.7
20260509153052 68 151 5.0 12.0 0.00 0.00 0.00 76 1011.8
20260509152522 67 176 6.0 12.0 0.00 0.00 0.00 76 1011.7
20260509152520 67 169 5.0 11.0 0.00 0.00 0.00 77 1013.8
20260509152022 67 220 5.0 11.0 0.00 0.00 0.00 76 1011.8
20260509151543 66 199 4.0 11.0 0.00 0.00 0.00 77 1011.9
20260509151021 65 128 5.0 10.0 0.00 0.00 0.00 79 1011.9
20260509150521 65 178 5.0 11.0 0.00 0.00 0.00 78 1012.0
20260509150409 66 180 4.0 10.0 0.00 0.00 0.00 77 1014.0
20260509150045 65 112 5.0 11.0 0.00 0.00 0.00 78 1012.0
20260509145522 65 176 3.0 12.0 0.00 0.00 0.00 78 1012.1
20260509145337 65 195 4.0 10.0 0.00 0.00 0.00 79 1014.1
20260509145021 65 147 5.0 12.0 0.00 0.00 0.00 78 1012.2
20260509144541 65 200 5.0 12.0 0.00 0.00 0.00 78 1012.3
20260509144338 65 139 4.0 12.0 0.00 0.00 0.00 79 1014.2
20260509144022 65 0 4.0 13.0 0.00 0.00 0.00 79 1012.1
20260509143523 64 212 6.0 13.0 0.00 0.00 0.00 79 1012.0
20260509143333 65 139 6.0 12.0 0.00 0.00 0.00 78 1014.0
20260509143043 64 172 8.0 13.0 0.00 0.00 0.00 79 1012.0
20260509142522 64 156 5.0 11.0 0.00 0.00 0.00 79 1012.2
20260509142321 64 137 6.0 11.0 0.00 0.00 0.00 78 1014.2
20260509142022 64 124 6.0 13.0 0.00 0.00 0.00 77 1012.0
20260509141542 65 120 6.0 13.0 0.00 0.00 0.00 78 1011.9
20260509141256 65 145 6.0 11.0 0.00 0.00 0.00 77 1014.0
20260509141023 65 124 6.0 12.0 0.00 0.00 0.00 76 1011.9
20260509140521 65 106 4.0 11.0 0.00 0.00 0.00 79 1012.0
20260509140304 64 197 4.0 12.0 0.00 0.00 0.00 79 1014.0
20260509140047 64 125 4.0 13.0 0.00 0.00 0.00 79 1011.9
20260509135525 64 187 5.0 13.0 0.00 0.00 0.00 80 1012.0
20260509135242 64 188 5.0 12.0 0.00 0.00 0.00 80 1014.2
20260509135022 63 192 7.0 12.0 0.00 0.00 0.00 79 1012.3
20260509134541 63 186 3.0 10.0 0.00 0.00 0.00 80 1012.4
20260509134021 62 193 4.0 10.0 0.00 0.00 0.00 80 1012.4
20260509133521 62 203 2.0 12.0 0.00 0.00 0.00 81 1012.6
20260509133143 62 190 4.0 11.0 0.00 0.00 0.00 81 1014.7
20260509133040 61 151 4.0 12.0 0.00 0.00 0.00 81 1012.8
20260509132522 61 143 6.0 12.0 0.00 0.00 0.00 81 1012.9
20260509132021 61 186 6.0 11.0 0.00 0.00 0.00 82 1013.1
20260509131543 61 182 6.0 11.0 0.00 0.00 0.00 82 1013.2
20260509131026 61 209 3.0 11.0 0.00 0.00 0.00 83 1015.3
20260509131022 60 227 3.0 8.0 0.00 0.00 0.00 83 1013.2
20260509130521 59 226 2.0 12.0 0.00 0.00 0.00 83 1013.3
20260509130040 59 220 3.0 12.0 0.00 0.00 0.00 83 1013.3
20260509130024 60 220 4.0 11.0 0.00 0.00 0.00 83 1015.3
20260509125524 59 214 6.0 10.0 0.00 0.00 0.00 83 1013.4
20260509125028 59 177 3.0 6.0 0.00 0.00 0.00 85 1015.3
20260509125025 59 195 2.0 8.0 0.00 0.00 0.00 85 1013.3
20260509124541 58 174 3.0 8.0 0.00 0.00 0.00 85 1013.5
20260509124021 57 168 3.0 7.0 0.00 0.00 0.00 86 1013.6
20260509124007 58 210 2.0 5.0 0.00 0.00 0.00 86 1015.5
20260509123521 57 185 2.0 8.0 0.00 0.00 0.00 87 1013.4
20260509123043 56 249 2.0 8.0 0.00 0.00 0.00 87 1013.4
20260509123008 57 210 1.0 4.0 0.00 0.00 0.00 87 1015.4
20260509122521 55 192 2.0 6.0 0.00 0.00 0.00 88 1013.0
20260509122021 52 187 0.0 3.0 0.00 0.00 0.00 88 1013.0
20260509121952 52 157 0.0 2.0 0.00 0.00 0.00 88 1015.0
20260509121544 50 167 1.0 3.0 0.00 0.00 0.00 88 1013.0
20260509121021 50 178 0.0 3.0 0.00 0.00 0.00 88 1013.0
20260509120943 50 196 0.0 1.0 0.00 0.00 0.00 88 1015.2
20260509120521 49 184 0.0 2.0 0.00 0.00 0.00 88 1013.0
20260509120058 49 0 0.0 1.0 0.00 0.00 0.00 88 1013.0
20260509120004 49 123 0.0 0.0 0.00 0.00 0.00 88 1015.0
20260509115524 48 0 0.0 1.0 0.00 0.00 0.00 88 1012.9
20260509115021 48 0 0.0 1.0 0.00 0.00 0.00 88 1012.8
20260509114938 48 153 0.0 0.0 0.00 0.00 0.00 88 1014.8
20260509114540 47 0 0.0 1.0 0.00 0.00 0.00 87 1012.9
20260509114022 47 0 0.0 1.0 0.00 0.00 0.00 88 1013.0
20260509113919 47 153 0.0 0.0 0.00 0.00 0.00 88 1014.9
20260509113522 47 153 0.0 1.0 0.00 0.00 0.00 87 1012.9
20260509113042 46 0 0.0 1.0 0.00 0.00 0.00 87 1012.8
20260509112852 47 153 0.0 0.0 0.00 0.00 0.00 87 1014.9
20260509112521 46 0 0.0 1.0 0.00 0.00 0.00 87 1012.8
20260509112021 46 0 0.0 1.0 0.00 0.00 0.00 87 1012.9
20260509111541 46 0 0.0 1.0 0.00 0.00 0.00 87 1012.8
20260509111022 45 0 0.0 1.0 0.00 0.00 0.00 86 1012.9
20260509110714 46 153 0.0 0.0 0.00 0.00 0.00 86 1014.8
20260509110522 45 0 0.0 1.0 0.00 0.00 0.00 86 1012.9
20260509110044 45 153 0.0 1.0 0.00 0.00 0.00 86 1012.8
20260509105726 46 153 0.0 0.0 0.00 0.00 0.00 86 1014.8
20260509105521 45 0 0.0 0.0 0.00 0.00 0.00 86 1012.9
20260509105021 45 0 0.0 0.0 0.00 0.00 0.00 86 1012.7
20260509104722 46 153 0.0 0.0 0.00 0.00 0.00 86 1014.7
20260509104536 45 0 0.0 1.0 0.00 0.00 0.00 86 1012.6
20260509104021 45 0 0.0 1.0 0.00 0.00 0.00 86 1012.5
20260509103649 46 153 0.0 0.0 0.00 0.00 0.00 86 1014.5
20260509103521 46 0 0.0 1.0 0.00 0.00 0.00 86 1012.4
20260509103037 46 0 0.0 1.0 0.00 0.00 0.00 86 1012.3
20260509102521 46 0 0.0 1.0 0.00 0.00 0.00 85 1012.3
20260509102021 46 0 0.0 1.0 0.00 0.00 0.00 85 1012.3
20260509101552 46 0 0.0 1.0 0.00 0.00 0.00 85 1011.9
20260509101024 46 0 0.0 1.0 0.00 0.00 0.00 85 1012.0
20260509100521 46 153 0.0 1.0 0.00 0.00 0.00 85 1012.0
20260509100412 47 153 0.0 0.0 0.00 0.00 0.00 85 1014.1
20260509100045 46 0 0.0 1.0 0.00 0.00 0.00 85 1012.0
20260509095521 46 0 0.0 1.0 0.00 0.00 0.00 85 1012.0
20260509095348 47 153 0.0 0.0 0.00 0.00 0.00 85 1014.0
20260509095021 46 0 0.0 1.0 0.00 0.00 0.00 85 1011.9
20260509094541 46 153 0.0 1.0 0.00 0.00 0.00 85 1012.0
20260509094315 47 153 0.0 0.0 0.00 0.00 0.00 85 1013.9
20260509094021 47 153 0.0 1.0 0.00 0.00 0.00 84 1011.9
20260509093521 47 0 0.0 2.0 0.00 0.00 0.00 84 1011.9
20260509093331 47 153 0.0 0.0 0.00 0.00 0.00 84 1014.0
20260509093041 47 0 0.0 2.0 0.00 0.00 0.00 84 1012.0
20260509092521 47 0 0.0 1.0 0.00 0.00 0.00 84 1012.1
20260509092337 47 153 0.0 0.0 0.00 0.00 0.00 84 1014.1
20260509092021 47 0 0.0 1.0 0.00 0.00 0.00 84 1012.2
20260509091540 47 0 0.0 1.0 0.00 0.00 0.00 84 1012.0
20260509091315 48 153 0.0 0.0 0.00 0.00 0.00 84 1014.1
20260509091021 47 153 0.0 1.0 0.00 0.00 0.00 84 1012.0
20260509090521 47 0 0.0 1.0 0.00 0.00 0.00 83 1012.1
20260509090046 47 0 0.0 1.0 0.00 0.00 0.00 83 1012.2
20260509085520 48 0 0.0 1.0 0.00 0.00 0.00 83 1012.4
20260509085021 48 0 0.0 1.0 0.00 0.00 0.00 83 1012.4
20260509084546 48 0 0.0 1.0 0.00 0.00 0.00 83 1012.7
20260509084114 49 153 0.0 0.0 0.00 0.00 0.00 83 1014.6
20260509084021 48 0 0.0 1.0 0.00 0.00 0.00 83 1012.7
20260509083521 48 0 0.0 1.0 0.00 0.00 0.00 83 1012.7
20260509083041 49 0 0.0 1.0 0.00 0.00 0.00 83 1012.7
20260509082521 49 0 0.0 1.0 0.00 0.00 0.00 83 1012.7
20260509082025 49 0 0.0 1.0 0.00 0.00 0.00 83 1012.7
20260509081944 49 153 0.0 0.0 0.00 0.00 0.00 83 1014.6
20260509081542 49 0 0.0 2.0 0.00 0.00 0.00 83 1012.7
20260509081025 49 0 0.0 2.0 0.00 0.00 0.00 83 1012.7
20260509080521 49 0 0.0 2.0 0.00 0.00 0.00 83 1012.7
20260509080048 50 0 0.0 2.0 0.00 0.00 0.00 83 1012.7
20260509075852 50 153 0.0 0.0 0.00 0.00 0.00 83 1014.8
20260509075523 50 153 0.0 2.0 0.00 0.00 0.00 82 1012.8
20260509075022 50 0 0.0 2.0 0.00 0.00 0.00 82 1012.8
20260509074552 50 153 0.0 2.0 0.00 0.00 0.00 81 1012.6
20260509074021 50 176 0.0 1.0 0.00 0.00 0.00 81 1012.7
20260509073741 51 192 0.0 0.0 0.00 0.00 0.00 81 1014.5
20260509073522 50 0 0.0 0.0 0.00 0.00 0.00 81 1012.4
20260509073112 50 0 0.0 0.0 0.00 0.00 0.00 81 1012.6
20260509072803 51 192 0.0 0.0 0.00 0.00 0.00 81 1014.7
20260509072523 51 0 0.0 0.0 0.00 0.00 0.00 81 1012.7
20260509072023 51 0 0.0 0.0 0.00 0.00 0.00 82 1012.7
20260509071758 51 192 0.0 0.0 0.00 0.00 0.00 82 1014.8
20260509071540 51 0 0.0 0.0 0.00 0.00 0.00 82 1012.8
20260509071021 51 0 0.0 1.0 0.00 0.00 0.00 82 1012.9
20260509070813 52 192 0.0 0.0 0.00 0.00 0.00 82 1014.8
20260509070521 51 0 0.0 1.0 0.00 0.00 0.00 82 1012.8
20260509070045 51 0 0.0 1.0 0.00 0.00 0.00 82 1012.9
20260509065748 52 192 0.0 0.0 0.00 0.00 0.00 81 1014.9
20260509065520 51 0 0.0 0.0 0.00 0.00 0.00 81 1012.9
20260509065024 52 0 0.0 1.0 0.00 0.00 0.00 81 1012.9
20260509064727 52 192 0.0 0.0 0.00 0.00 0.00 81 1015.0
20260509064541 52 0 0.0 1.0 0.00 0.00 0.00 80 1012.9
20260509064022 53 0 0.0 1.0 0.00 0.00 0.00 79 1013.1
20260509063521 53 0 0.0 1.0 0.00 0.00 0.00 78 1013.1
20260509063041 54 0 0.0 1.0 0.00 0.00 0.00 77 1013.1
20260509062521 54 0 0.0 2.0 0.00 0.00 0.00 75 1013.2
20260509062022 55 0 0.0 3.0 0.00 0.00 0.00 73 1013.4
20260509061540 55 0 1.0 6.0 0.00 0.00 0.00 72 1013.4
20260509061021 55 146 1.0 6.0 0.00 0.00 0.00 72 1013.4
20260509060525 56 178 2.0 4.0 0.00 0.00 0.00 72 1013.5
20260509060211 56 191 1.0 6.0 0.00 0.00 0.00 73 1015.6
20260509060046 56 179 1.0 8.0 0.00 0.00 0.00 72 1013.6
20260509055521 55 181 2.0 8.0 0.00 0.00 0.00 73 1013.6
20260509055219 56 166 1.0 4.0 0.00 0.00 0.00 73 1015.8
20260509055020 55 191 2.0 7.0 0.00 0.00 0.00 73 1013.7
20260509054548 55 180 2.0 7.0 0.00 0.00 0.00 73 1013.7
20260509054241 55 193 2.0 6.0 0.00 0.00 0.00 74 1015.7
20260509054022 55 167 2.0 7.0 0.00 0.00 0.00 74 1013.8
20260509053521 54 158 2.0 7.0 0.00 0.00 0.00 74 1013.9
20260509053218 55 156 1.0 6.0 0.00 0.00 0.00 75 1015.9
20260509053041 54 176 2.0 7.0 0.00 0.00 0.00 75 1013.8
20260509052521 54 149 2.0 6.0 0.00 0.00 0.00 76 1013.9
20260509052231 54 178 1.0 5.0 0.00 0.00 0.00 77 1016.0
20260509052021 53 157 2.0 6.0 0.00 0.00 0.00 78 1014.1
20260509051540 53 190 1.0 7.0 0.00 0.00 0.00 79 1014.1
20260509051236 53 187 1.0 6.0 0.00 0.00 0.00 80 1016.2
20260509051021 52 168 2.0 7.0 0.00 0.00 0.00 80 1014.2
20260509050522 51 162 1.0 7.0 0.00 0.00 0.00 82 1014.2
20260509050041 51 149 2.0 7.0 0.00 0.00 0.00 83 1014.2
20260509045522 50 162 2.0 7.0 0.00 0.00 0.00 85 1014.4
20260509045023 50 175 1.0 5.0 0.00 0.00 0.00 85 1014.4
20260509044541 50 172 2.0 4.0 0.00 0.00 0.00 85 1014.4
20260509044021 50 156 0.0 2.0 0.00 0.00 0.00 85 1014.4
20260509043953 50 269 0.0 0.0 0.00 0.00 0.00 85 1016.4
20260509043520 50 0 0.0 2.0 0.00 0.00 0.00 85 1014.4
20260509043038 50 0 0.0 0.0 0.00 0.00 0.00 85 1014.3
20260509042941 50 269 0.0 0.0 0.00 0.00 0.00 85 1016.3
20260509042521 50 0 0.0 0.0 0.00 0.00 0.00 85 1014.3
20260509042021 50 0 0.0 1.0 0.00 0.00 0.00 85 1014.3
20260509041924 50 269 0.0 0.0 0.00 0.00 0.00 85 1016.4
20260509041542 50 0 0.0 1.0 0.00 0.00 0.00 85 1014.4
20260509041020 50 0 0.0 0.0 0.00 0.00 0.00 85 1014.3
20260509040910 51 269 0.0 0.0 0.00 0.00 0.00 85 1016.3
20260509040521 50 0 0.0 0.0 0.00 0.00 0.00 84 1014.3
20260509040057 50 0 0.0 0.0 0.00 0.00 0.00 84 1014.4
20260509035836 51 269 0.0 0.0 0.00 0.00 0.00 84 1016.4
20260509035521 50 0 0.0 0.0 0.00 0.00 0.00 84 1014.4
20260509035021 50 0 0.0 1.0 0.00 0.00 0.00 84 1014.4
20260509034831 51 269 0.0 0.0 0.00 0.00 0.00 84 1016.4
20260509034548 50 0 0.0 1.0 0.00 0.00 0.00 84 1014.3
20260509034022 50 0 0.0 1.0 0.00 0.00 0.00 84 1014.3
20260509033844 51 269 0.0 0.0 0.00 0.00 0.00 84 1016.3
20260509033521 51 0 0.0 1.0 0.00 0.00 0.00 84 1014.3
20260509033041 51 0 0.0 1.0 0.00 0.00 0.00 84 1014.4
20260509032525 51 0 0.0 1.0 0.00 0.00 0.00 84 1014.3
20260509032021 51 0 0.0 1.0 0.00 0.00 0.00 84 1014.2
20260509031537 51 0 0.0 1.0 0.00 0.00 0.00 84 1014.3
20260509031021 51 0 0.0 1.0 0.00 0.00 0.00 83 1014.4
20260509030602 51 269 0.0 0.0 0.00 0.00 0.00 83 1016.5
20260509030521 51 0 0.0 1.0 0.00 0.00 0.00 83 1014.4
20260509030047 51 0 0.0 1.0 0.00 0.00 0.00 83 1014.4
20260509025540 51 269 0.0 0.0 0.00 0.00 0.00 83 1016.5
20260509025521 51 0 0.0 1.0 0.00 0.00 0.00 83 1014.4
20260509025022 51 0 0.0 1.0 0.00 0.00 0.00 82 1014.5
20260509024549 51 269 0.0 0.0 0.00 0.00 0.00 82 1016.6
20260509024544 51 0 0.0 1.0 0.00 0.00 0.00 82 1014.5
20260509024021 51 0 0.0 1.0 0.00 0.00 0.00 82 1014.6
20260509023520 51 0 0.0 1.0 0.00 0.00 0.00 82 1014.8
20260509023515 51 269 0.0 0.0 0.00 0.00 0.00 82 1016.8
20260509023044 51 0 0.0 1.0 0.00 0.00 0.00 81 1014.6
20260509022520 51 0 0.0 1.0 0.00 0.00 0.00 81 1014.7
20260509022021 51 0 0.0 1.0 0.00 0.00 0.00 81 1014.6
20260509021544 51 0 0.0 1.0 0.00 0.00 0.00 80 1014.7
20260509021420 52 269 0.0 0.0 0.00 0.00 0.00 80 1016.8
20260509021018 51 0 0.0 1.0 0.00 0.00 0.00 80 1014.8
20260509020522 51 0 0.0 1.0 0.00 0.00 0.00 80 1014.7
20260509020414 52 269 0.0 0.0 0.00 0.00 0.00 79 1016.8
20260509020041 52 0 0.0 1.0 0.00 0.00 0.00 79 1014.9
20260509015521 52 0 0.0 1.0 0.00 0.00 0.00 79 1014.8
20260509015402 52 269 0.0 0.0 0.00 0.00 0.00 79 1016.7
20260509015021 52 0 0.0 0.0 0.00 0.00 0.00 78 1014.8
20260509014535 52 0 0.0 0.0 0.00 0.00 0.00 78 1014.7
20260509014327 52 269 0.0 0.0 0.00 0.00 0.00 78 1016.8
20260509014021 52 0 0.0 1.0 0.00 0.00 0.00 77 1014.8
20260509013522 52 0 0.0 1.0 0.00 0.00 0.00 77 1014.7
20260509013257 53 269 0.0 0.0 0.00 0.00 0.00 77 1016.8
20260509013044 52 0 0.0 1.0 0.00 0.00 0.00 77 1014.7
20260509012521 53 0 0.0 1.0 0.00 0.00 0.00 76 1014.5
20260509012246 53 269 0.0 0.0 0.00 0.00 0.00 75 1016.6
20260509012021 53 0 0.0 1.0 0.00 0.00 0.00 74 1014.5
20260509011553 53 0 0.0 1.0 0.00 0.00 0.00 73 1014.4
20260509011302 54 269 0.0 0.0 0.00 0.00 0.00 73 1016.4
20260509011020 54 0 0.0 1.0 0.00 0.00 0.00 72 1014.4
20260509010520 54 0 0.0 1.0 0.00 0.00 0.00 73 1014.4
20260509010259 55 269 0.0 0.0 0.00 0.00 0.00 72 1016.5
20260509010046 54 0 0.0 0.0 0.00 0.00 0.00 72 1014.4
20260509005522 55 0 0.0 1.0 0.00 0.00 0.00 71 1014.3
20260509005250 55 269 0.0 0.0 0.00 0.00 0.00 70 1016.3
20260509005020 55 0 0.0 1.0 0.00 0.00 0.00 70 1014.2
20260509004548 56 0 0.0 1.0 0.00 0.00 0.00 68 1014.2
20260509004229 56 269 0.0 0.0 0.00 0.00 0.00 67 1016.2
20260509004020 56 0 0.0 1.0 0.00 0.00 0.00 66 1014.2
20260509003518 56 0 0.0 1.0 0.00 0.00 0.00 66 1014.1
20260509003228 57 269 0.0 0.0 0.00 0.00 0.00 64 1016.1
20260509003035 57 0 0.0 1.0 0.00 0.00 0.00 64 1014.1
20260509002520 57 0 0.0 1.0 0.00 0.00 0.00 62 1014.1
20260509002159 58 269 0.0 0.0 0.00 0.00 0.00 60 1016.1
20260509002022 58 0 0.0 1.0 0.00 0.00 0.00 60 1014.0
20260509001542 59 0 0.0 2.0 0.00 0.00 0.00 59 1013.9
20260509001155 60 269 0.0 0.0 0.00 0.00 0.00 59 1016.0
20260509001020 59 0 0.0 2.0 0.00 0.00 0.00 58 1013.9
20260509000520 60 269 0.0 2.0 0.00 0.00 0.00 56 1013.8
20260509000041 61 314 0.0 1.0 0.00 0.00 0.00 56 1013.9
20260508235521 62 150 0.0 2.0 0.00 0.00 0.00 53 1013.8
20260508235021 63 0 0.0 3.0 0.00 0.00 0.00 48 1013.9
20260508235014 64 141 0.0 0.0 0.00 0.00 0.00 48 1016.0
20260508234541 64 141 0.0 4.0 0.00 0.00 0.00 43 1014.0
20260508234020 64 142 1.0 5.0 0.00 0.00 0.00 41 1013.9
20260508233942 65 144 1.0 3.0 0.00 0.00 0.00 41 1016.0
20260508233521 64 139 2.0 5.0 0.00 0.00 0.00 40 1014.1
20260508233053 65 147 2.0 4.0 0.00 0.00 0.00 39 1014.1
20260508232952 65 143 1.0 6.0 0.00 0.00 0.00 39 1016.2
20260508232520 65 174 1.0 6.0 0.00 0.00 0.00 40 1014.2
20260508232021 65 145 1.0 7.0 0.00 0.00 0.00 39 1014.1
20260508232002 66 167 2.0 8.0 0.00 0.00 0.00 39 1016.1
20260508231541 66 183 3.0 9.0 0.00 0.00 0.00 37 1014.1
20260508231021 66 146 4.0 10.0 0.00 0.00 0.00 37 1014.1
20260508231005 66 151 3.0 8.0 0.00 0.00 0.00 37 1016.2
20260508230520 66 149 2.0 10.0 0.00 0.00 0.00 37 1014.0
20260508230040 66 175 4.0 9.0 0.00 0.00 0.00 36 1014.0
20260508225523 67 151 3.0 9.0 0.00 0.00 0.00 37 1013.8
20260508225021 67 96 1.0 6.0 0.00 0.00 0.00 38 1013.8
20260508224540 68 184 2.0 9.0 0.00 0.00 0.00 37 1013.9
20260508224020 68 138 3.0 9.0 0.00 0.00 0.00 37 1013.8
20260508223634 69 214 3.0 10.0 0.00 0.00 0.00 37 1016.0
20260508223520 68 166 4.0 9.0 0.00 0.00 0.00 37 1013.9
20260508223046 68 200 3.0 9.0 0.00 0.00 0.00 38 1013.9
20260508222613 69 164 4.0 10.0 0.00 0.00 0.00 37 1015.9
20260508222520 69 156 3.0 12.0 0.00 0.00 0.00 37 1013.9
20260508222020 69 197 5.0 12.0 0.00 0.00 0.00 35 1013.8
20260508221629 70 185 3.0 7.0 0.00 0.00 0.00 35 1015.7
20260508221541 69 170 4.0 8.0 0.00 0.00 0.00 38 1013.6
20260508221022 69 199 2.0 8.0 0.00 0.00 0.00 37 1013.7
20260508220601 69 166 2.0 7.0 0.00 0.00 0.00 37 1015.6
20260508220520 68 237 4.0 8.0 0.00 0.00 0.00 36 1013.6
20260508220036 68 209 2.0 9.0 0.00 0.00 0.00 39 1013.5
20260508215621 69 133 3.0 8.0 0.00 0.00 0.00 36 1015.6
20260508215520 68 137 3.0 9.0 0.00 0.00 0.00 38 1013.6
20260508215021 69 225 3.0 9.0 0.00 0.00 0.00 35 1013.6
20260508214601 70 260 3.0 9.0 0.00 0.00 0.00 36 1015.7
20260508214548 69 179 4.0 9.0 0.00 0.00 0.00 36 1013.7
20260508214020 69 215 3.0 11.0 0.00 0.00 0.00 35 1013.7
20260508213520 69 166 5.0 11.0 0.00 0.00 0.00 35 1013.8
20260508213042 69 226 4.0 9.0 0.00 0.00 0.00 35 1013.7
20260508212521 69 299 3.0 7.0 0.00 0.00 0.00 34 1013.7
20260508212353 70 201 1.0 6.0 0.00 0.00 0.00 36 1015.7
20260508212026 69 209 1.0 8.0 0.00 0.00 0.00 38 1013.7
20260508211543 69 351 2.0 9.0 0.00 0.00 0.00 34 1013.6
20260508211417 70 357 3.0 7.0 0.00 0.00 0.00 35 1015.6
20260508211021 70 228 5.0 9.0 0.00 0.00 0.00 33 1013.8
20260508210521 70 209 3.0 8.0 0.00 0.00 0.00 34 1013.8
20260508210035 70 262 1.0 7.0 0.00 0.00 0.00 34 1013.9
20260508205520 69 157 2.0 10.0 0.00 0.07 0.00 34 1013.8
20260508205224 70 247 3.0 9.0 0.00 0.00 0.00 33 1016.0
20260508205020 70 245 4.0 10.0 0.00 0.07 0.00 34 1014.0
20260508204544 69 124 3.0 10.0 0.00 0.07 0.00 35 1014.0
20260508204232 70 173 4.0 9.0 0.00 0.00 0.00 35 1016.1
20260508204026 70 201 6.0 10.0 0.00 0.07 0.00 33 1014.3